Regional Weather Roundup
Issued by NWS Charleston, SC

Current Version | Previous Version | Text Only | Print | Product List | Glossary On
Versions: 1 2 3 4 5 6 7 8 9 10 11 12 13 14 15 16 17 18 19 20 21 22 23 24 25 26 27 28 29 30 31 32 33 34 35 36 37 38 39 40 41 42 43 44 45 46 47 48 49 50
000
ASUS42 KCHS 192127
RWRCHS

REGIONAL WEATHER ROUNDUP
NATIONAL WEATHER SERVICE CHARLESTON SC
400 PM EST SUN FEB 19 2017

NOTE: "FAIR" INDICATES FEW OR NO CLOUDS BELOW 12,000 FEET WITH NO
SIGNIFICANT WEATHER AND/OR OBSTRUCTIONS TO VISIBILITY.

NOT ALL STATIONS ARE QUALITY CONTROLLED. USE DATA WITH CAUTION...
ESPECIALLY DEWPOINT OBSERVATIONS.

SCZ027-030-031-034>040-042>050-192200-
...SOUTHEAST SOUTH CAROLINA...

CITY           SKY/WX    TMP DP  RH WIND       PRES   REMARKS
N CHARLESTON   MOSUNNY   75  46  35 N9G21     29.99R
WATERFRONT PRK   N/A     74  49  41 NW6G13    29.96S
MOUNT PLEASANT FAIR      73  50  43 NW10      29.99S
JOHNS ISLAND   FAIR      75  50  41 NW13      29.99S
PINOPOLIS        N/A     64  54  68 N6        29.91S
MONCKS CORNER  FAIR      70  45  40 N8        30.00R
SUMMERVILLE    FAIR      73  46  38 N8        30.00S
BEAUFORT MCAS  SUNNY     76  49  38 NW10      30.00S
BEAUFORT ARPT  FAIR      73  48  40 NW8       29.99S
HILTON HEAD IS MOSUNNY   77  50  38 N13       30.00F
WALTERBORO     CLEAR     73  46  38 NW5       30.01R
ALLENDALE      FAIR      75  48  38 VRB5G13   30.00R

...SOUTHERN MIDLANDS AND PEE DEE...

CITY           SKY/WX    TMP DP  RH WIND       PRES   REMARKS
GEORGETOWN     FAIR      72  46  40 NW10G21   29.99R
KINGSTREE      FAIR      70  45  40 W10G18    29.98F
ORANGEBURG     MOSUNNY   72  47  40 NW7G17    30.00F
BARNWELL       FAIR      75  52  43 N9        30.01S
AIKEN          FAIR      70  48  46 N9        30.05R
MANNING        FAIR      70  45  40 MISG      29.99F
COLUMBIA       MOSUNNY   73  48  41 NW8       30.00F
SUMTER         SUNNY     72  46  39 W6        29.98F
FLORENCE       SUNNY     72  47  40 N13       29.99S
MYRTLE BEACH   SUNNY     72  46  40 NW13      29.98R
N MYRTLE BEACH SUNNY     72  47  40 NW7G17    29.95S

$$

GAZ063-065-086>088-099>101-113>116-118-119-134>141-150-192200-
...SOUTHEAST GEORGIA...

CITY           SKY/WX    TMP DP  RH WIND       PRES   REMARKS
SAVANNAH ARPT  MOSUNNY   74  47  38 NW9       30.00S
HUNTER AAF     MOSUNNY   77  55  46 W9        29.98S
FORT STEWART   MOSUNNY   74  51  45 NW5       29.99S
STATESBORO     CLOUDY    76  53  44 N10       30.01S
SYLVANIA       CLEAR    N/A N/A N/A N7        30.02R
CLAXTON        FAIR      73  54  51 NW7       30.02R

...CSRA...CENTRAL AND FAR SOUTHEAST GEORGIA...

CITY           SKY/WX    TMP DP  RH WIND       PRES   REMARKS
THOMSON        MOSUNNY   74  53  46 NW5       30.06R
AUGUSTA-BUSH   MOSUNNY   77  49  37 N9        30.00S
AUGUSTA-DANIEL SUNNY     73  47  39 N10       30.02R
SWAINSBORO     CLOUDY    73  50  43 W5        30.03R
VIDALIA        CLOUDY    73  55  53 NW5       30.02S
EASTMAN        FAIR      73  36  25 NW3       30.06R
HAZLEHURST     FAIR      76  53  44 N9        30.01R
ALMA           MOSUNNY   76  53  44 NW7       30.01F
WAYCROSS       CLOUDY    81  57  44 NW8       30.02R
JESUP          MOCLDY    77  50  38 NW9       30.01S
BAXLEY         PTSUNNY   75  57  53 NW3       30.02R
BRUNSWICK      MOSUNNY   77  59  53 NW5       30.02S
SAINT SIMONS   MOSUNNY   70  59  68 VRB7      30.01S

$$

SCZ027-028-034-036>038-045-046-048>050-GAZ119-141-192200-
...LAKE AND SUPPLEMENTAL COASTAL OBSERVATIONS...

STATION/POSITION TIME  TEMP    WIND        PRES    WAVE   SWELL
                       AIR SEA DIR/SP/G            HT/PER HT/PER/DIR
                 (UTC) (F)     (DEG/KT/KT) (MB)    (FT/S) (FT/S/D)
WINYAH BAY       2045   71     310/  9     1015.0R
LAKE MURRAY      2050   68     170/  4/  5 1015.6F
ACE BASIN NERRS  2045   75     300/  3     1015.0S
FORT PULASKI     2100   73 60  310/  7/ 10 1016.1
SAPELO ISLAND    2100   77     300/  8     1016.0

$$

ANZ835-935-AMZ111-154-330-350-352-354-370-450-454-472-192200-
...C-MAN AND BUOY OBSERVATIONS...

STATION/POSITION TIME  TEMP    WIND        PRES    WAVE   SWELL
                       AIR SEA DIR/SP/G            HT/PER HT/PER/DIR
                 (UTC) (F)     (DEG/KT/KT) (MB)    (FT/S) (FT/S/D)
BUOY 41004       2050   66 69  260/ 12/ 14 1015.0R   2/ 7   2/140/ 7
BUOY 41008       2050   64 63  180/  8/ 10 1016.3R   1
FOLLY BEACH CMAN 2100   73     330/  9/ 14 1016.0R
CAPERS NEARSHORE 2108   67 61  330/  8/ 12 1015.2S
FRIPP NEARSHORE  2108   69 60  320/  8/ 14 1015.5S


STATION/POSITION TIME  TEMP    WIND        PRES    WAVE   SWELL
                       AIR SEA DIR/SP/G            HT/PER HT/PER/DIR
                 (UTC) (F)     (DEG/KT/KT) (MB)    (FT/S) (FT/S/D)
5E ST. MARYS GA  2100      65                N/A     1
FRYING PAN BUOY  2110   63 64  250/ 14/ 16 1014.1
BUOY 41025       2050   61 67  330/ 10/ 12 1013.1R   2/ 7   2/160/ 7
CAPE LOOKOUT NC  2100   62     240/  9/ 12 1012.8R
BUOY 41002       2050   67 71  270/ 10/ 12 1012.1R   4/ 6   3/240/ 6
BUOY 41010       NOT AVBL
ST AUGUSTINE FL  2100   66 67   70/  9/ 10 1018.0F


$$




USA.gov is the U.S. government's official web portal to all federal, state and local government web resources and services.